Location: Franzen
(48.6167°N, 15.3833°E)
Time: 18:44:14
(UTC+00:00)

A-11 Canister half - Pass Details

Date: 29 July 2021
Orbit: 1515 x 1685 km, 47.2° (Epoch: 19 September)

Event Time Altitude Azimuth Distance (km) Brightness Sun altitude
Rises 17:58:45 0° 247° (WSW) 4,823 12.4 5.3°
Reaches altitude 10° 18:01:50 10° 246° (WSW) 3,859 11.8 4.9°
Maximum altitude 18:11:43 75° 164° (SSE) 1,717 9.3 3.4°
Drops below altitude 10° 18:21:51 10° 81° (E) 3,952 10.7 1.9°
Sets 18:25:02 0° 80° (E) 4,943 11.2 1.4°
